Regional Weather Roundup
Issued by NWS

Home | Current Version | Previous Version | Text Only | Print | Product List | Glossary Off
Versions: 1 2 3 4 5 6 7 8 9 10 11 12 13 14 15 16 17 18 19 20 21 22 23 24 25 26 27 28 29 30 31 32 33 34 35 36 37 38 39 40 41 42 43 44 45 46 47 48 49 50

000
ASUS45 KBOU 241907
RWRCO

WEATHER ROUNDUP FOR COLORADO
NATIONAL WEATHER SERVICE DENVER/BOULDER CO
100 PM MDT SUN MAY 24 2015

NOTE: "FAIR" INDICATES FEW OR NO CLOUDS BELOW 12000 FEET WITH NO
SIGNIFICANT WEATHER AND/OR OBSTRUCTIONS TO VISIBILITY.

COZ001>005-013-030-031-242000-
...NORTHWEST COLORADO...

CITY           SKY/WX    TMP DP  RH WIND       PRES   REMARKS
CRAIG          LGT RAIN  45  40  82 W14       29.96F
HAYDEN         CLOUDY    45  36  70 SW3       29.96F
MEEKER         LGT RAIN  43  39  86 S8        29.98S
MOUNT WERNER   NOT AVBL
STEAMBOAT SPGS CLOUDY    41  36  83 CALM      29.97S
WALDEN         CLOUDY    46  30  53 SE6       29.93F
$$

COZ006>008-011-242000-
...WEST CENTRAL VALLEYS...

CITY           SKY/WX    TMP DP  RH WIND       PRES   REMARKS
GRAND JUNCTION PTSUNNY   57  41  55 VRB6      29.93F
MONTROSE       MOSUNNY   58  37  45 NW12G18   29.96F
EAGLE          PTSUNNY   54  36  50 SW23      29.94S
RIFLE          LGT RAIN  51  39  63 S8        29.95S
DELTA          CLOUDY    60  41  49 MISG      29.94F
NUCLA          MOSUNNY   55  36  47 CALM      30.00F
$$

COZ017>023-064>068-242000-
...SOUTHWEST COLORADO...

CITY           SKY/WX    TMP DP  RH WIND       PRES   REMARKS
DURANGO        LGT RAIN  47  44  90 S10       30.00S
CORTEZ         CLOUDY    53  43  68 SW10G16   30.00F
PAGOSA SPRINGS PTSUNNY   46  38  73 S9G16     30.01F
TELLURIDE      PTSUNNY   46  33  61 W13       30.05S
WOLF CREEK PAS NOT AVBL
$$

COZ009-010-012-014-032>034-037-058>063-242000-
...CENTRAL COLORADO...

CITY           SKY/WX    TMP DP  RH WIND       PRES   REMARKS
ASPEN          LGT RAIN  50  33  52 N9        29.95S
BUENA VISTA    PTSUNNY   52  27  37 NE7       29.94F
COPPER MTN     CLOUDY    36  21  55 S9        30.07S
BERTHOUD PASS  PTSUNNY   28  19  69 NW10      30.08F THUNDER WCI  19
COTTONWOOD PAS CLOUDY    46  23  39 SE5       30.00F
GUNNISON       PTSUNNY   48  25  40 SW3       29.98F
KREMMLING      PTSUNNY   50  37  62 E8G16     29.94F THUNDER
LEADVILLE      PTSUNNY   41  20  43 S6        29.98F
MONARCH PASS   PTSUNNY   32  19  59 W25G31    30.18S WCI  19
SALIDA         PTSUNNY   59  26  28 SW9G18    29.99F
SUNLIGHT       SNOW      34  32  93 SW3       30.08F VSB 1/2
WILKERSON PASS PTSUNNY   41  25  52 SW5       30.07F
$$

COZ069>075-242000-
...SAN LUIS VALLEY/SANGRE DE CRISTO MOUNTAINS...

CITY           SKY/WX    TMP DP  RH WIND       PRES   REMARKS
ALAMOSA        LGT RAIN  48  39  71 N9        29.95F
LA VETA PASS   CLOUDY   N/A N/A N/A MISG      30.03F
SAGUACHE       CLOUDY    41  34  75 S5        30.00S
$$

COZ035-036-038>040-242000-
...NORTHERN COLORADO FRONT RANGE...

CITY           SKY/WX    TMP DP  RH WIND       PRES   REMARKS
DENVER INTL AP CLOUDY    52  45  77 E8        29.88S
DMNS CITY PARK   N/A     57  44  63 E7G20     29.86F
AURORA         PTSUNNY   51  40  68 SE13      29.89S
FRONT RANGE AP PTSUNNY   52  46  82 E13       29.89S THUNDER
ERIE MUNI ARPT CLOUDY    59  43  56 E7        29.87F
BOULDER MUN AP CLOUDY    59  43  55 NE5       29.87S
CENTENNIAL     CLOUDY    53  39  59 NE10      29.88F
BROOMFIELD     CLOUDY    57  43  58 NE6       29.89F
FORT COLLINS   CLOUDY    59  43  55 E7        29.89S
LONGMONT       CLOUDY    63  46  52 E7        29.89S
$$

COZ041-046-047-076>085-087-088-242000-
...PIKES PEAK/PALMER DIVIDE AND SOUTHERN FOOTHILLS...

CITY           SKY/WX    TMP DP  RH WIND       PRES   REMARKS
COLO. SPRINGS  TSTM      51  39  63 W17G30    29.90F
A. F. ACADEMY  PTSUNNY   52  35  51 S8        29.88F
ELLICOTT       NOT AVBL
FALCON         PTSUNNY   55  36  48 SW10      29.92F
FORT CARSON    TSTM      44  37  76 NW7       29.90R
LIMON          MOSUNNY   60  47  61 SE15G24   29.86F
MONUMENT HILL  NOT AVBL
TRINIDAD       PTSUNNY   65  41  41 MISG      29.86F
$$

COZ042>045-048>051-090-091-242000-
...NORTHEAST COLORADO...

CITY           SKY/WX    TMP DP  RH WIND       PRES   REMARKS
GREELEY ARPT   CLOUDY    59  45  58 E7        29.88R
AKRON          PTSUNNY   64  48  56 SE9       29.86F
BURLINGTON     MOSUNNY   65  53  65 E9        29.86F
WRAY           PTSUNNY   65  51  58 S5        29.86F
STERLING       CLOUDY    63  50  63 E8        29.84F
HOLYOKE        NOT AVBL
FORT MORGAN    MOSUNNY   63  46  54 SE7       29.86F
$$

COZ086-089-092>099-242000-
...SOUTHEAST COLORADO...

CITY           SKY/WX    TMP DP  RH WIND       PRES   REMARKS
PUEBLO         CLOUDY    60  44  55 S9        29.85F
LA JUNTA       MOSUNNY   66  50  56 S3        29.83F
LAMAR          MOSUNNY   70  54  56 SE9G17    29.80F
SPRINGFIELD      N/A     70  52  52 SE13      29.83F
$$



USA.gov is the U.S. government's official web portal to all federal, state and local government web resources and services.